📊 Raw Sensor Data

Showing records 33551 to 33575 of 84,783 total

ID Distance (ft) Battery V Battery A Int Temp (°F) Int Humid (%) Ext Temp (°F) Solar V RSSI SNR Time Stamp
51245 14.9 3.98 0 93 47 83 5.10 -74 7 09/06/2025 05:00 PM
51244 14.8 4.13 5 94 46 84 5.10 -73 8 09/06/2025 04:45 PM
51243 14.4 4.01 0 95 45 85 5.10 -73 7 09/06/2025 04:30 PM
51242 14.8 3.98 6 96 44 86 5.10 -75 7 09/06/2025 04:15 PM
51241 14.8 4.10 6 96 44 83 5.10 -75 7 09/06/2025 04:00 PM
51240 14.9 3.98 0 96 43 82 5.10 -73 7 09/06/2025 03:45 PM
51239 14.8 3.99 6 96 42 87 5.10 -74 7 09/06/2025 03:30 PM
51238 14.1 3.98 0 95 42 85 5.10 -73 7 09/06/2025 03:15 PM
51237 14.8 3.98 0 94 42 84 5.10 -74 7 09/06/2025 03:00 PM
51236 14.8 4.01 6 94 41 81 5.10 -73 8 09/06/2025 02:45 PM
51235 14.8 3.98 5 93 41 82 5.10 -74 8 09/06/2025 02:30 PM
51234 14.8 4.13 0 93 40 83 5.10 -74 7 09/06/2025 02:15 PM
51233 14.8 3.98 0 92 40 82 5.10 -73 7 09/06/2025 02:00 PM
51232 13.9 3.98 6 90 40 82 5.10 -75 7 09/06/2025 01:45 PM
51231 14.8 3.98 0 88 41 81 5.10 -75 8 09/06/2025 01:30 PM
51230 13.9 3.98 6 86 42 79 5.10 -74 8 09/06/2025 01:15 PM
51229 14.7 4.06 6 86 41 79 5.10 -74 7 09/06/2025 01:00 PM
51228 14.7 3.98 0 85 42 77 5.10 -73 7 09/06/2025 12:45 PM
51227 14.7 3.98 6 84 41 78 5.10 -75 7 09/06/2025 12:30 PM
51226 14.7 3.98 6 83 41 79 5.10 -74 8 09/06/2025 12:15 PM
51225 14.7 3.98 0 82 41 76 5.10 -74 7 09/06/2025 12:00 PM
51224 14.7 4.13 5 81 41 78 5.10 -75 8 09/06/2025 11:45 AM
51223 14.7 3.98 0 80 41 78 5.10 -75 8 09/06/2025 11:30 AM
51222 14.8 3.98 0 78 41 77 5.10 -73 7 09/06/2025 11:15 AM
51221 14.8 3.98 0 78 41 76 5.10 -74 7 09/06/2025 11:00 AM